Location: Boiro
(42.6475°N, 8.8834°W)
Time: 02:31:28
(UTC+01:00)

Tiros 1 despin weight - Pass Details

Date: 02 December 2021
Orbit: 592 x 641 km, 48.2° (Epoch: 23 January)

Event Time Altitude Azimuth Distance (km) Brightness Sun altitude
Rises 22:34:39 0° 281° (W) 2,834 - -49.1°
Reaches altitude 10° 22:38:24 10° 249° (WSW) 1,936 - -49.8°
Maximum altitude 22:39:55 12° 228° (SW) 1,834 - -50.1°
Drops below altitude 10° 22:41:27 10° 208° (SSW) 1,941 - -50.3°
Sets 22:45:14 0° 176° (S) 2,851 - -51.0°
